When you browse on this site, cookies collect data to enhance your experience and personalize the content and advertising you see.
Visit our Privacy Policy to learn more. By continuing to use the site, you agree to this use of cookies and data.
  • In Hungary
  • List of Countries
  • For 7 days
  • Water Temperature
  • Satellite Maps
  • Weather Map
  • News
  • Weather Widgets
  • user-avatar
    Login

    Hourly Weather Yoro

    Today, 21 April, Sunday

    Time Temperature Precipitation Wind Pressure Humidity
    00:00 +18°C° 0 mm 0 mps 702 mmHg 89%
    01:00 +18°C° 0 mm 0 mps 702 mmHg 90%
    02:00 +20°C° 0 mm 1 mps 702 mmHg 90%
    03:00 +20°C° 0 mm 1 mps 701 mmHg 91%
    04:00 +20°C° 0 mm 1 mps 701 mmHg 91%
    05:00 +20°C° 0 mm 1 mps 702 mmHg 92%
    06:00 +18°C° 0 mm 0 mps 702 mmHg 92%
    07:00 +22°C° 0.1 mm 1 mps 702 mmHg 88%
    08:00 +23°C° 0.1 mm 1 mps 703 mmHg 83%
    09:00 +24°C° 0.1 mm 1 mps 703 mmHg 79%
    10:00 +25°C° 0.1 mm 1 mps 703 mmHg 75%
    11:00 +25°C° 0.1 mm 1 mps 703 mmHg 72%
    12:00 +26°C° 0.1 mm 1 mps 702 mmHg 68%
    13:00 +26°C° 0.1 mm 1 mps 702 mmHg 68%
    14:00 +27°C° 0.1 mm 2 mps 701 mmHg 68%
    15:00 +27°C° 0.1 mm 2 mps 701 mmHg 68%
    16:00 +26°C° 0.1 mm 1 mps 701 mmHg 73%
    17:00 +25°C° 0.1 mm 1 mps 701 mmHg 79%
    18:00 +24°C° 0.1 mm 1 mps 701 mmHg 85%
    19:00 +23°C° 0 mm 1 mps 701 mmHg 87%
    20:00 +22°C° 0 mm 1 mps 702 mmHg 90%
    21:00 +22°C° 0 mm 1 mps 702 mmHg 93%
    22:00 +22°C° 0 mm 1 mps 702 mmHg 94%
    23:00 +19°C° 0 mm 0 mps 702 mmHg 94%

    Tomorrow, 22 April, Monday

    Time Temperature Precipitation Wind Pressure Humidity
    00:00 +19°C° 0 mm 0 mps 702 mmHg 95%
    01:00 +19°C° 0 mm 0 mps 701 mmHg 94%
    02:00 +19°C° 0 mm 0 mps 701 mmHg 94%
    03:00 +19°C° 0 mm 0 mps 700 mmHg 93%
    04:00 +19°C° 0 mm 0 mps 700 mmHg 92%
    05:00 +19°C° 0 mm 0 mps 700 mmHg 91%
    06:00 +19°C° 0 mm 0 mps 701 mmHg 91%
    07:00 +21°C° 0 mm 0 mps 701 mmHg 79%
    08:00 +26°C° 0 mm 1 mps 702 mmHg 67%
    09:00 +29°C° 0 mm 1 mps 703 mmHg 56%
    10:00 +30°C° 0 mm 1 mps 702 mmHg 51%
    11:00 +31°C° 0 mm 1 mps 702 mmHg 47%
    12:00 +32°C° 0 mm 1 mps 702 mmHg 43%
    13:00 +31°C° 0.1 mm 1 mps 701 mmHg 49%
    14:00 +30°C° 0.1 mm 1 mps 700 mmHg 54%
    15:00 +29°C° 0.1 mm 1 mps 699 mmHg 59%
    16:00 +28°C° 0.2 mm 1 mps 699 mmHg 65%
    17:00 +27°C° 0.2 mm 1 mps 699 mmHg 71%
    18:00 +26°C° 0.2 mm 1 mps 699 mmHg 77%
    19:00 +25°C° 0.5 mm 1 mps 700 mmHg 82%
    20:00 +24°C° 0.5 mm 1 mps 700 mmHg 87%
    21:00 +23°C° 0.5 mm 1 mps 701 mmHg 92%
    22:00 +23°C° 0.4 mm 1 mps 701 mmHg 93%
    23:00 +21°C° 0.4 mm 0 mps 701 mmHg 93%

    Day after tomorrow, 23 April, Tuesday

    Time Temperature Precipitation Wind Pressure Humidity
    00:00 +21°C° 0.4 mm 0 mps 700 mmHg 93%
    01:00 +21°C° 0.1 mm 0 mps 700 mmHg 93%
    02:00 +20°C° 0.1 mm 0 mps 699 mmHg 92%
    03:00 +20°C° 0.1 mm 0 mps 699 mmHg 92%
    04:00 +20°C° 0 mm 0 mps 699 mmHg 92%
    05:00 +20°C° 0 mm 0 mps 699 mmHg 92%
    06:00 +20°C° 0 mm 0 mps 700 mmHg 91%
    07:00 +23°C° 0 mm 0 mps 700 mmHg 80%
    08:00 +27°C° 0 mm 1 mps 701 mmHg 69%
    09:00 +29°C° 0 mm 1 mps 702 mmHg 58%
    10:00 +31°C° 0 mm 1 mps 702 mmHg 51%
    11:00 +33°C° 0 mm 1 mps 701 mmHg 45%
    12:00 +34°C° 0 mm 1 mps 701 mmHg 38%
    13:00 +34°C° 0 mm 1 mps 700 mmHg 40%
    14:00 +33°C° 0 mm 1 mps 699 mmHg 42%
    15:00 +32°C° 0 mm 2 mps 698 mmHg 44%
    16:00 +30°C° 0.1 mm 1 mps 698 mmHg 53%
    17:00 +29°C° 0.1 mm 1 mps 698 mmHg 62%
    18:00 +27°C° 0.1 mm 1 mps 698 mmHg 71%
    19:00 +26°C° 0.3 mm 1 mps 699 mmHg 77%
    20:00 +25°C° 0.3 mm 1 mps 699 mmHg 83%
    21:00 +24°C° 0.3 mm 1 mps 700 mmHg 90%
    22:00 +24°C° 0.1 mm 1 mps 700 mmHg 90%
    23:00 +24°C° 0.1 mm 1 mps 700 mmHg 90%

    24 April, Wednesday

    Time Temperature Precipitation Wind Pressure Humidity
    00:00 +23°C° 0.1 mm 1 mps 700 mmHg 90%
    01:00 +23°C° 0 mm 1 mps 699 mmHg 90%
    02:00 +23°C° 0 mm 1 mps 699 mmHg 91%
    03:00 +22°C° 0 mm 1 mps 699 mmHg 91%
    04:00 +22°C° 0 mm 1 mps 699 mmHg 91%
    05:00 +22°C° 0 mm 1 mps 699 mmHg 91%
    06:00 +22°C° 0 mm 1 mps 699 mmHg 91%
    07:00 +25°C° 0 mm 1 mps 700 mmHg 79%
    08:00 +27°C° 0 mm 1 mps 701 mmHg 68%
    09:00 +30°C° 0 mm 1 mps 702 mmHg 56%
    10:00 +32°C° 0.1 mm 1 mps 701 mmHg 51%
    11:00 +31°C° 0.1 mm 0 mps 701 mmHg 46%
    12:00 +33°C° 0.1 mm 0 mps 700 mmHg 41%
    13:00 +34°C° 0 mm 1 mps 700 mmHg 43%
    14:00 +33°C° 0 mm 1 mps 699 mmHg 46%
    15:00 +31°C° 0 mm 1 mps 698 mmHg 48%
    16:00 +30°C° 0 mm 1 mps 698 mmHg 53%
    17:00 +29°C° 0 mm 1 mps 698 mmHg 58%
    18:00 +28°C° 0 mm 1 mps 698 mmHg 63%
    19:00 +27°C° 0.1 mm 1 mps 699 mmHg 68%
    20:00 +26°C° 0.1 mm 1 mps 699 mmHg 73%
    21:00 +25°C° 0.1 mm 1 mps 699 mmHg 78%
    22:00 +25°C° 0 mm 1 mps 699 mmHg 77%
    23:00 +24°C° 0 mm 1 mps 699 mmHg 77%

    25 April, Thursday

    Time Temperature Precipitation Wind Pressure Humidity
    00:00 +24°C° 0 mm 1 mps 698 mmHg 77%
    01:00 +24°C° 0 mm 1 mps 698 mmHg 79%
    02:00 +23°C° 0 mm 1 mps 698 mmHg 82%
    03:00 +23°C° 0 mm 1 mps 698 mmHg 84%
    04:00 +23°C° 0 mm 1 mps 698 mmHg 85%
    05:00 +23°C° 0 mm 1 mps 698 mmHg 86%
    06:00 +23°C° 0 mm 1 mps 699 mmHg 87%
    07:00 +25°C° 0 mm 1 mps 700 mmHg 77%
    08:00 +27°C° 0 mm 1 mps 700 mmHg 68%
    09:00 +30°C° 0 mm 2 mps 701 mmHg 58%
    10:00 +31°C° 0 mm 2 mps 701 mmHg 52%
    11:00 +33°C° 0 mm 1 mps 700 mmHg 46%
    12:00 +35°C° 0 mm 1 mps 700 mmHg 39%
    13:00 +35°C° 0 mm 1 mps 699 mmHg 40%
    14:00 +34°C° 0 mm 1 mps 699 mmHg 40%
    15:00 +34°C° 0 mm 1 mps 698 mmHg 41%
    16:00 +32°C° 0 mm 1 mps 698 mmHg 46%
    17:00 +31°C° 0 mm 1 mps 698 mmHg 50%
    18:00 +30°C° 0 mm 1 mps 698 mmHg 55%
    19:00 +29°C° 0 mm 1 mps 699 mmHg 59%
    20:00 +28°C° 0 mm 1 mps 699 mmHg 63%
    21:00 +27°C° 0 mm 1 mps 700 mmHg 67%
    22:00 +26°C° 0 mm 1 mps 699 mmHg 67%
    23:00 +26°C° 0 mm 1 mps 699 mmHg 67%

    26 April, Friday

    Time Temperature Precipitation Wind Pressure Humidity
    00:00 +26°C° 0 mm 1 mps 699 mmHg 67%
    01:00 +25°C° 0 mm 1 mps 699 mmHg 68%
    02:00 +25°C° 0 mm 1 mps 699 mmHg 69%
    03:00 +24°C° 0 mm 1 mps 698 mmHg 70%
    04:00 +24°C° 0 mm 1 mps 699 mmHg 71%
    05:00 +24°C° 0 mm 1 mps 699 mmHg 72%
    06:00 +23°C° 0 mm 1 mps 699 mmHg 73%
    07:00 +26°C° 0 mm 1 mps 700 mmHg 64%
    08:00 +29°C° 0 mm 1 mps 701 mmHg 55%
    09:00 +32°C° 0 mm 1 mps 701 mmHg 46%
    10:00 +33°C° 0 mm 1 mps 701 mmHg 44%
    11:00 +34°C° 0 mm 1 mps 701 mmHg 41%
    12:00 +35°C° 0 mm 1 mps 700 mmHg 39%
    13:00 +34°C° 0 mm 1 mps 700 mmHg 42%
    14:00 +34°C° 0 mm 2 mps 699 mmHg 46%
    15:00 +32°C° 0 mm 2 mps 698 mmHg 49%
    16:00 +31°C° 0.2 mm 2 mps 699 mmHg 56%
    17:00 +29°C° 0.2 mm 1 mps 699 mmHg 62%
    18:00 +28°C° 0.2 mm 1 mps 699 mmHg 69%
    19:00 +27°C° 0.2 mm 1 mps 699 mmHg 74%
    20:00 +26°C° 0.2 mm 1 mps 700 mmHg 80%
    21:00 +25°C° 0.2 mm 1 mps 700 mmHg 85%
    22:00 +23°C° 0 mm 0 mps 700 mmHg 85%
    23:00 +22°C° 0 mm 0 mps 699 mmHg 85%
    Show more